Regional Weather Roundup
Issued by NWS Upton, NY

Current Version | Previous Version | Text Only | Print | Product List | Glossary Off
Versions: 1 2 3 4 5 6 7 8 9 10 11 12 13 14 15 16 17 18 19 20 21 22 23 24 25 26 27 28 29 30 31 32 33 34 35 36 37 38 39 40 41 42 43 44 45 46 47 48 49 50
000 ASUS41 KOKX 280008 RWROKX REGIONAL WEATHER ROUNDUP NATIONAL WEATHER SERVICE NEW YORK NY 800 PM EDT FRI MAR 27 2015 NOTE: "FAIR" INDICATES FEW OR NO CLOUDS BELOW 12,000 FEET WITH NO SIGNIFICANT WEATHER AND/OR OBSTRUCTIONS TO VISIBILITY. NYZ071-072-176-178-NJZ106-104-280100- NEW YORK CITY METRO AREA CITY SKY/WX TMP DP RH WIND PRES REMARKS CENTRAL PARK CLOUDY 44 26 49 VRB3 29.78R LAGUARDIA APRT CLOUDY 45 28 51 N10 29.75R KENNEDY INTL CLOUDY 46 30 53 NW13 29.77R NEWARK/LIBERTY MOCLDY 45 27 49 NW12G20 29.77R BRNX BOT. GARD N/A N/A N/A N/A NW10 29.78R TETERBORO CLOUDY 44 27 51 NW7 29.76R $$ NYZ177-179-078>081-280100- LONG ISLAND NEW YORK CITY SKY/WX TMP DP RH WIND PRES REMARKS FARMINGDALE CLOUDY 44 31 60 N6 29.76R ISLIP MOCLDY 42 31 64 N5 29.73S SHIRLEY MOCLDY 41 33 73 N3 29.76R WESTHAMPTON CLOUDY 42 35 76 N3 29.76R MONTAUK POINT N/A 41 39 93 CALM 29.75R $$ NYZ052-065-067-280100- HUDSON VALLEY CITY SKY/WX TMP DP RH WIND PRES REMARKS WHITE PLAINS CLOUDY 41 27 57 N9 29.74R NEWBURGH MOCLDY 41 28 60 VRB5 29.76R MONTGOMERY CLOUDY 40 24 53 N7 29.76R POUGHKEEPSIE CLOUDY 42 26 53 N5 29.76R ALBANY MOCLDY 38 24 57 NW12G23 29.78R WCI 30 $$ NJZ001-105-106-008-010-013-015-019>022-104-280100- NEW JERSEY CITY SKY/WX TMP DP RH WIND PRES REMARKS NEWARK/LIBERTY MOCLDY 45 27 49 NW12G20 29.77R TETERBORO CLOUDY 44 27 51 NW7 29.76R CALDWELL CLOUDY 42 24 49 N6 29.78R MORRISTOWN NOT AVBL SOMERVILLE CLOUDY 43 24 47 N3 29.76R SUSSEX MOCLDY 40 24 53 NW5 29.78R ANDOVER N/A 40 24 53 VRB5 29.77R TRENTON CLOUDY 44 27 51 N5 29.76R MILLVILLE CLOUDY 42 32 67 CALM 29.77R ATLANTIC CITY CLOUDY 42 35 76 NW6 29.78R WRIGHTSTOWN MOCLDY 41 31 66 NW6 29.75R TOMS RIVER CLOUDY 43 30 61 NW5 29.77R BELMAR CLOUDY 45 27 49 NW9 29.76R $$ PAZ047>061-062-071-280100- EASTERN PENNSYLVANIA CITY SKY/WX TMP DP RH WIND PRES REMARKS PHILADELPHIA CLOUDY 45 26 47 N9 29.78R ALLENTOWN MOCLDY 40 24 53 N6 29.78R SCRANTON CLOUDY 37 24 59 N8 29.78R WCI 31 $$ CTZ002-004>006-009-010-012-RIZ004-006-007-MAZ004-011-015-280100- SOUTHERN NEW ENGLAND IN CT CITY SKY/WX TMP DP RH WIND PRES REMARKS BRADLEY INTL MOCLDY 41 29 62 NW5 29.75R HARTFORD CLOUDY 43 29 57 VRB6 29.74S DANBURY CLOUDY 40 24 53 N3 29.76R WTRBRY/OXFORD PTCLDY 39 25 56 N6 29.75R WCI 35 BRIDGEPORT CLOUDY 44 29 55 N7 29.75R MERIDEN CLOUDY 38 29 70 W3 29.75R NEW HAVEN MOCLDY 42 30 62 N5 29.74R CHESTER CLOUDY 41 32 70 NW5 29.74R GROTON CLOUDY 43 36 76 N3 29.73R WILLIMANTIC CLOUDY 42 32 67 CALM 29.74R IN RI CITY SKY/WX TMP DP RH WIND PRES REMARKS PROVIDENCE CLOUDY 40 37 89 CALM 29.75R BLOCK ISLAND CLOUDY 39 36 87 CALM 29.74R WESTERLY CLOUDY 42 38 85 CALM 29.74R IN MA CITY SKY/WX TMP DP RH WIND PRES REMARKS BOSTON CLOUDY 39 35 86 CALM 29.74S WORCESTER CLOUDY 38 32 79 W6 29.71R WCI 33 WESTFIELD MOCLDY 40 29 64 CALM 29.74R PROVINCETOWN CLOUDY 37 36 93 NW3 29.74R NANTUCKET CLOUDY 38 35 89 N13 29.70F WCI 30 $$ ANZ330-335-338-340-345-350-353-355-280100- COASTAL MARINE OBSERVATIONS STATION/POSITION TIME SKY/WX TEMP WIND PRES VSBY WAVE AIR SEA DIR/SP/G HT/PER (UTC) (F) (DEG/KT/KT) (MB) (MI) (FT/S) NY HARB ENTRANCE 2350 41 39 280/ 4/ 6 1007.6 4/11 4S FIRE IS 2303 37 N/A 4/11 20S FIRE ISLAND 2250 38 1007.4 4/11 23SW MTP 2350 N/A 6/11 HUDSON CANYON NOT AVBL EXECUTION ROCKS NOT AVBL WESTERN LI SOUND NOT AVBL CENTRAL LI SOUND NOT AVBL EASTERN LI SOUND NOT AVBL ROBBINS REEF 2300 44 330/ 12/ 15 1006.2 $$ >>>>>>>>>>>>>>>>>>>>>>>>>>>> KEY <<<<<<<<<<<<<<<<<<<<<<<<<<< > < > SKY/WX - SKY CONDITION/PRESENT WEATHER < > TMP - TEMPERATURE IN FAHRENHEIT < > DP - DEWPOINT IN FAHRENHEIT < > RH - RELATIVE HUMIDITY IN PERCENT < > WIND - DIRECTION AND SPEED IN MPH < > PRES - MEAN SEA LEVEL PRESSURE IN INCHES OF HG < > WCI - WIND CHILL INDEX < > VSB - VISIBILITY IN MILES < > HX - HEAT INDEX < > TC - TEMPERATURE IN CELSIUS < > VRB - VARIABLE WIND DIRECTION < > < >>>>>>>>>>>>>>>>>>>>>>>>>>>> KEY <<<<<<<<<<<<<<<<<<<<<<<<<<<

USA.gov is the U.S. government's official web portal to all federal, state and local government web resources and services.